When you browse on this site, cookies collect data to enhance your experience and personalize the content and advertising you see.
Visit our Privacy Policy to learn more. By continuing to use the site, you agree to this use of cookies and data.
  • In Hungary
  • List of Countries
  • For 7 days
  • Water Temperature
  • Satellite Maps
  • Weather Map
  • News
  • Weather Widgets
  • user-avatar
    Login

    Hourly Weather York

    Today, 20 February, Wednesday

    Time Temperature Precipitation Wind Pressure Humidity
    00:00 +6°C° 0 mm 4 mps 758 mmHg 84%
    01:00 +6°C° 0.6 mm 5 mps 758 mmHg 85%
    02:00 +7°C° 0.6 mm 6 mps 758 mmHg 85%
    03:00 +7°C° 0.6 mm 6 mps 758 mmHg 85%
    04:00 +7°C° 0.1 mm 6 mps 758 mmHg 84%
    05:00 +7°C° 0.1 mm 6 mps 758 mmHg 84%
    06:00 +7°C° 0 mm 5 mps 757 mmHg 85%
    07:00 +8°C° 0 mm 5 mps 758 mmHg 84%
    08:00 +8°C° 0 mm 6 mps 758 mmHg 83%
    09:00 +8°C° 0 mm 6 mps 758 mmHg 82%
    10:00 +9°C° 0 mm 6 mps 759 mmHg 79%
    11:00 +10°C° 0 mm 6 mps 759 mmHg 75%
    12:00 +11°C° 0 mm 7 mps 759 mmHg 72%
    13:00 +11°C° 0 mm 7 mps 759 mmHg 72%
    14:00 +11°C° 0 mm 7 mps 759 mmHg 73%
    15:00 +11°C° 0 mm 6 mps 759 mmHg 73%
    16:00 +10°C° 0.3 mm 6 mps 759 mmHg 76%
    17:00 +9°C° 0.3 mm 5 mps 760 mmHg 80%
    18:00 +9°C° 0.3 mm 5 mps 760 mmHg 84%
    19:00 +9°C° 0 mm 5 mps 760 mmHg 85%
    20:00 +8°C° 0 mm 5 mps 760 mmHg 86%
    21:00 +8°C° 0 mm 5 mps 761 mmHg 88%
    22:00 +8°C° 0 mm 4 mps 761 mmHg 89%
    23:00 +8°C° 0 mm 4 mps 761 mmHg 90%

    Tomorrow, 21 February, Thursday

    Time Temperature Precipitation Wind Pressure Humidity
    00:00 +8°C° 0 mm 4 mps 762 mmHg 91%
    01:00 +8°C° 0 mm 4 mps 762 mmHg 91%
    02:00 +8°C° 0 mm 4 mps 762 mmHg 91%
    03:00 +8°C° 0 mm 4 mps 762 mmHg 91%
    04:00 +8°C° 0 mm 4 mps 762 mmHg 92%
    05:00 +8°C° 0 mm 4 mps 762 mmHg 92%
    06:00 +9°C° 0 mm 3 mps 763 mmHg 93%
    07:00 +10°C° 0 mm 4 mps 763 mmHg 91%
    08:00 +10°C° 0 mm 4 mps 764 mmHg 89%
    09:00 +10°C° 0 mm 5 mps 764 mmHg 87%
    10:00 +12°C° 0 mm 5 mps 765 mmHg 82%
    11:00 +14°C° 0 mm 5 mps 765 mmHg 77%
    12:00 +15°C° 0 mm 5 mps 765 mmHg 73%
    13:00 +15°C° 0 mm 4 mps 765 mmHg 72%
    14:00 +15°C° 0 mm 4 mps 766 mmHg 71%
    15:00 +15°C° 0 mm 4 mps 766 mmHg 71%
    16:00 +14°C° 0 mm 3 mps 766 mmHg 76%
    17:00 +12°C° 0 mm 3 mps 767 mmHg 81%
    18:00 +11°C° 0 mm 3 mps 767 mmHg 87%
    19:00 +10°C° 0 mm 3 mps 768 mmHg 88%
    20:00 +10°C° 0 mm 3 mps 768 mmHg 89%
    21:00 +9°C° 0 mm 3 mps 769 mmHg 91%
    22:00 +9°C° 0 mm 3 mps 769 mmHg 91%
    23:00 +8°C° 0 mm 2 mps 769 mmHg 91%

    Day after tomorrow, 22 February, Friday

    Time Temperature Precipitation Wind Pressure Humidity
    00:00 +8°C° 0 mm 2 mps 770 mmHg 91%
    01:00 +8°C° 0 mm 2 mps 770 mmHg 91%
    02:00 +8°C° 0 mm 2 mps 770 mmHg 91%
    03:00 +7°C° 0 mm 2 mps 771 mmHg 90%
    04:00 +7°C° 0 mm 2 mps 771 mmHg 90%
    05:00 +7°C° 0 mm 2 mps 771 mmHg 89%
    06:00 +7°C° 0 mm 2 mps 771 mmHg 88%
    07:00 +7°C° 0 mm 3 mps 771 mmHg 85%
    08:00 +8°C° 0 mm 3 mps 772 mmHg 81%
    09:00 +8°C° 0 mm 3 mps 772 mmHg 77%
    10:00 +10°C° 0 mm 3 mps 773 mmHg 72%
    11:00 +11°C° 0 mm 3 mps 773 mmHg 66%
    12:00 +13°C° 0 mm 3 mps 773 mmHg 61%
    13:00 +13°C° 0 mm 4 mps 773 mmHg 61%
    14:00 +13°C° 0 mm 4 mps 773 mmHg 61%
    15:00 +14°C° 0 mm 4 mps 772 mmHg 62%
    16:00 +12°C° 0 mm 4 mps 773 mmHg 68%
    17:00 +11°C° 0 mm 4 mps 773 mmHg 75%
    18:00 +10°C° 0 mm 3 mps 773 mmHg 82%
    19:00 +9°C° 0 mm 3 mps 773 mmHg 83%
    20:00 +8°C° 0 mm 4 mps 773 mmHg 84%
    21:00 +8°C° 0 mm 4 mps 773 mmHg 85%
    22:00 +7°C° 0 mm 4 mps 773 mmHg 87%
    23:00 +7°C° 0 mm 4 mps 773 mmHg 89%

    23 February, Saturday

    Time Temperature Precipitation Wind Pressure Humidity
    00:00 +8°C° 0 mm 3 mps 773 mmHg 91%
    01:00 +6°C° 0 mm 4 mps 773 mmHg 90%
    02:00 +6°C° 0 mm 4 mps 773 mmHg 89%
    03:00 +6°C° 0 mm 4 mps 772 mmHg 88%
    04:00 +5°C° 0 mm 4 mps 772 mmHg 89%
    05:00 +5°C° 0 mm 4 mps 772 mmHg 90%
    06:00 +5°C° 0 mm 3 mps 772 mmHg 91%
    07:00 +6°C° 0 mm 4 mps 772 mmHg 89%
    08:00 +7°C° 0 mm 4 mps 772 mmHg 87%
    09:00 +7°C° 0 mm 5 mps 772 mmHg 84%
    10:00 +9°C° 0 mm 5 mps 772 mmHg 80%
    11:00 +12°C° 0 mm 5 mps 772 mmHg 75%
    12:00 +13°C° 0 mm 6 mps 772 mmHg 71%
    13:00 +14°C° 0 mm 5 mps 771 mmHg 71%
    14:00 +14°C° 0 mm 5 mps 771 mmHg 71%
    15:00 +15°C° 0 mm 5 mps 771 mmHg 72%
    16:00 +14°C° 0 mm 5 mps 771 mmHg 78%
    17:00 +12°C° 0 mm 4 mps 771 mmHg 83%
    18:00 +11°C° 0 mm 3 mps 771 mmHg 89%
    19:00 +11°C° 0 mm 3 mps 772 mmHg 91%
    20:00 +10°C° 0 mm 3 mps 772 mmHg 92%
    21:00 +10°C° 0 mm 3 mps 772 mmHg 94%
    22:00 +9°C° 0 mm 3 mps 772 mmHg 94%
    23:00 +9°C° 0 mm 3 mps 772 mmHg 94%

    24 February, Sunday

    Time Temperature Precipitation Wind Pressure Humidity
    00:00 +9°C° 0 mm 2 mps 773 mmHg 95%
    01:00 +8°C° 0 mm 2 mps 773 mmHg 94%
    02:00 +8°C° 0 mm 2 mps 773 mmHg 94%
    03:00 +8°C° 0 mm 2 mps 773 mmHg 94%
    04:00 +9°C° 0 mm 1 mps 773 mmHg 94%
    05:00 +9°C° 0 mm 1 mps 773 mmHg 94%
    06:00 +8°C° 0 mm 0 mps 773 mmHg 93%
    07:00 +9°C° 0 mm 1 mps 774 mmHg 93%
    08:00 +10°C° 0 mm 1 mps 774 mmHg 92%
    09:00 +10°C° 0 mm 1 mps 774 mmHg 91%
    10:00 +10°C° 0 mm 2 mps 775 mmHg 87%
    11:00 +12°C° 0 mm 2 mps 775 mmHg 83%
    12:00 +14°C° 0 mm 2 mps 775 mmHg 79%
    13:00 +14°C° 0 mm 2 mps 775 mmHg 79%
    14:00 +14°C° 0 mm 2 mps 775 mmHg 78%
    15:00 +14°C° 0 mm 2 mps 775 mmHg 77%
    16:00 +13°C° 0 mm 2 mps 775 mmHg 82%
    17:00 +12°C° 0 mm 2 mps 775 mmHg 86%
    18:00 +10°C° 0 mm 3 mps 776 mmHg 91%
    19:00 +9°C° 0 mm 2 mps 776 mmHg 93%
    20:00 +8°C° 0 mm 2 mps 776 mmHg 94%
    21:00 +8°C° 0 mm 2 mps 776 mmHg 96%
    22:00 +9°C° 0 mm 1 mps 776 mmHg 95%
    23:00 +9°C° 0 mm 1 mps 777 mmHg 95%

    25 February, Monday

    Time Temperature Precipitation Wind Pressure Humidity
    00:00 +9°C° 0 mm 1 mps 777 mmHg 94%
    01:00 +9°C° 0 mm 1 mps 777 mmHg 94%
    02:00 +7°C° 0 mm 0 mps 777 mmHg 94%
    03:00 +7°C° 0 mm 0 mps 777 mmHg 95%
    04:00 +6°C° 0 mm 0 mps 777 mmHg 94%
    05:00 +6°C° 0 mm 0 mps 777 mmHg 94%
    06:00 +5°C° 0 mm 0 mps 777 mmHg 94%
    07:00 +7°C° 0 mm 1 mps 777 mmHg 91%
    08:00 +8°C° 0 mm 1 mps 777 mmHg 88%
    09:00 +9°C° 0 mm 1 mps 778 mmHg 85%
    10:00 +9°C° 0 mm 2 mps 778 mmHg 77%
    11:00 +10°C° 0 mm 2 mps 777 mmHg 70%
    12:00 +13°C° 0 mm 2 mps 777 mmHg 62%
    13:00 +13°C° 0 mm 2 mps 777 mmHg 60%
    14:00 +14°C° 0 mm 2 mps 777 mmHg 58%
    15:00 +14°C° 0 mm 2 mps 776 mmHg 56%
    16:00 +13°C° 0 mm 2 mps 776 mmHg 60%
    17:00 +10°C° 0 mm 2 mps 776 mmHg 65%
    18:00 +9°C° 0 mm 2 mps 776 mmHg 70%
    19:00 +8°C° 0 mm 2 mps 777 mmHg 70%
    20:00 +7°C° 0 mm 2 mps 777 mmHg 71%
    21:00 +6°C° 0 mm 2 mps 777 mmHg 72%
    22:00 +6°C° 0 mm 2 mps 777 mmHg 72%
    23:00 +6°C° 0 mm 2 mps 776 mmHg 73%
    Show more